Location: Prague
(50.0830°N, 14.4670°E)
Time: 04:45:39
(UTC+01:00)

ITUPSAT 1 - Pass Details

Date: 02 December 2021
Orbit: 700 x 713 km, 98.6° (Epoch: 28 January)

Event Time Altitude Azimuth Distance (km) Brightness Sun altitude
Rises 06:51:07 0° 168° (SSE) 3,086 ? -7.7°
Reaches altitude 10° 06:53:22 10° 170° (S) 2,174 ? -7.4°
Maximum altitude 06:58:08 76° 256° (WSW) 737 ? -6.7°
Drops below altitude 10° 07:02:57 10° 342° (NNW) 2,199 ? -6.0°
Sets 07:05:15 0° 344° (NNW) 3,124 ? -5.7°
